Weather History for KCWA - July, 2013

Change the Weather History Date:

Tuesday, July 2, 2013

  Actual Average Record
Temperature  
Mean Temperature 62 °F -  
Max Temperature 73 °F 74 °F 91 °F (2012)
Min Temperature 50 °F 54 °F 39 °F (2001)
Degree Days  
Heating Degree Days 4    
Growing Degree Days 12 (Base 50)    
Moisture  
Dew Point 49 °F    
Average Humidity 68    
Maximum Humidity 94    
Minimum Humidity 33    
Precipitation  
Precipitation 0.00 in - - ()
Sea Level Pressure  
Sea Level Pressure 30.15 in    
Wind  
Wind Speed 6 mph (ENE)    
Max Wind Speed 8 mph    
Max Gust Speed -    
Visibility 10 miles    
Events      
Averages and records for this station are not official NWS values.
T = Trace of Precipitation, MM = Missing Value Source: NWS Daily Summary

Daily Weather History Graph

Daily Weather History Graph

Search for Another Location

Airport or City:

Trip Planner

Search our weather history database for the weather conditions in past years. The results will help you decide how hot, cold, wet, or windy it might be!

Date:

Astronomy

Jul. 02, 2013 Rise Set
Actual Time 5:17 AM CDT 8:47 PM CDT
Civil Twilight 4:40 AM CDT 9:24 PM CDT
Nautical Twilight 3:51 AM CDT 10:13 PM CDT
Astronomical Twilight 2:48 AM CDT 11:15 PM CDT
Moon 1:27 AM CDT (7/2) 3:55 PM CDT (7/2)
Length of Visible Light 16h 44m
Length of Day
15h 30m
Waning Crescent, 26% of the Moon is Illuminated
Jul 2
Waning Crescent
Jul 8
New
Jul 15
First Quarter
Jul 22
Full
Jul 29
Last Quarter

Hourly Weather History & Observations

Time (CDT) Temp. Dew Point Humidity Pressure Visibility Wind Dir Wind Speed Gust Speed Precip Events Conditions
12:15 AM 60.8 °F 51.8 °F 72% 30.17 in 7.0 mi East 6.9 mph - N/A   Clear
12:35 AM 60.8 °F 51.8 °F 72% 30.17 in 10.0 mi East 5.8 mph - N/A   Clear
12:55 AM 59.0 °F 51.8 °F 77% 30.17 in 10.0 mi East 6.9 mph - N/A   Clear
1:15 AM 57.2 °F 51.8 °F 82% 30.17 in 10.0 mi ENE 8.1 mph - N/A   Clear
1:35 AM 57.2 °F 51.8 °F 82% 30.18 in 10.0 mi East 8.1 mph - N/A   Clear
1:55 AM 57.2 °F 51.8 °F 82% 30.18 in 10.0 mi East 6.9 mph - N/A   Clear
2:15 AM 55.4 °F 51.8 °F 88% 30.17 in 7.0 mi East 6.9 mph - N/A   Clear
2:35 AM 53.6 °F 51.8 °F 94% 30.17 in 10.0 mi ENE 6.9 mph - N/A   Scattered Clouds
2:55 AM 53.6 °F 51.8 °F 94% 30.16 in 10.0 mi East 8.1 mph - N/A   Scattered Clouds
3:15 AM 53.6 °F 50.0 °F 88% 30.16 in 10.0 mi ENE 6.9 mph - N/A   Scattered Clouds
3:35 AM 53.6 °F 50.0 °F 88% 30.16 in 10.0 mi NE 3.5 mph - N/A   Scattered Clouds
3:55 AM 53.6 °F 50.0 °F 88% 30.16 in 10.0 mi NE 4.6 mph - N/A   Clear
4:15 AM 51.8 °F 50.0 °F 94% 30.16 in 10.0 mi ENE 6.9 mph - N/A   Clear
4:35 AM 51.8 °F 48.2 °F 88% 30.17 in 10.0 mi ENE 6.9 mph - N/A   Clear
4:55 AM 50.0 °F 46.4 °F 87% 30.17 in 10.0 mi ENE 5.8 mph - N/A   Clear
5:15 AM 51.8 °F 46.4 °F 82% 30.17 in 10.0 mi ENE 6.9 mph - N/A   Clear
5:35 AM 50.0 °F 46.4 °F 87% 30.17 in 7.0 mi NE 4.6 mph - N/A   Clear
5:45 AM 51.8 °F 46.4 °F 82% 30.17 in 10.0 mi NE 5.8 mph - N/A   Scattered Clouds
6:45 AM 53.6 °F 48.2 °F 82% 30.18 in 10.0 mi ENE 8.1 mph - N/A   Scattered Clouds
7:50 AM 57.2 °F 50.0 °F 77% 30.19 in 10.0 mi East 8.1 mph - N/A   Scattered Clouds
9:45 AM 66.2 °F 51.8 °F 60% 30.18 in - Variable 4.6 mph - N/A   Scattered Clouds
10:45 AM 69.8 °F 48.2 °F 46% 30.18 in 10.0 mi East 5.8 mph - N/A   Scattered Clouds
11:55 AM 71.6 °F 48.2 °F 43% 30.17 in 10.0 mi ESE 3.5 mph - N/A   Clear
12:55 PM 71.6 °F 50.0 °F 46% 30.16 in 10.0 mi NE 5.8 mph - N/A   Clear
1:55 PM 71.6 °F 51.8 °F 50% 30.15 in 10.0 mi East 4.6 mph - N/A   Clear
2:50 PM 73.4 °F 48.2 °F 41% 30.14 in 10.0 mi North 5.8 mph - N/A   Clear
3:45 PM 73.4 °F 48.2 °F 41% 30.13 in 10.0 mi ENE 3.5 mph - N/A   Clear
4:50 PM 73.4 °F 44.6 °F 36% 30.12 in 10.0 mi ESE 3.5 mph - N/A   Clear
5:50 PM 73.4 °F 42.8 °F 33% 30.11 in 10.0 mi Variable 5.8 mph - N/A   Clear
6:45 PM 73.4 °F 48.2 °F 41% 30.11 in 10.0 mi Variable 5.8 mph - N/A   Clear
7:45 PM 69.8 °F 48.2 °F 46% 30.11 in 10.0 mi Variable 6.9 mph - N/A   Clear
8:52 PM 62.6 °F 48.2 °F 59% 30.11 in 10.0 mi Variable 4.6 mph - N/A   Clear
9:45 PM 60.8 °F 46.4 °F 59% 30.12 in 10.0 mi ESE 3.5 mph - N/A   Clear
10:15 PM 59.0 °F 44.6 °F 59% 30.13 in 10.0 mi ESE 3.5 mph - N/A   Clear
10:35 PM 59.0 °F 44.6 °F 59% 30.13 in 10.0 mi ESE 3.5 mph - N/A   Clear
10:55 PM 59.0 °F 44.6 °F 59% 30.12 in 10.0 mi ESE 3.5 mph - N/A   Clear
11:15 PM 57.2 °F 44.6 °F 63% 30.12 in 10.0 mi Calm Calm - N/A   Clear
11:35 PM 55.4 °F 46.4 °F 72% 30.13 in 10.0 mi Calm Calm - N/A   Clear
11:55 PM 55.4 °F 46.4 °F 72% 30.13 in 10.0 mi SE 3.5 mph - N/A   Clear